Weather History for Fosston, MN

Change the Weather History Date:

Tuesday, January 28, 2014

  Actual Average Record
Temperature  
Mean Temperature -20 °F -  
Max Temperature -7 °F 13 °F 39 °F (2008)
Min Temperature -32 °F -5 °F -38 °F (1966)
Degree Days  
Heating Degree Days 84    
Moisture  
Dew Point -26 °F    
Average Humidity 71    
Maximum Humidity 84    
Minimum Humidity 59    
Precipitation  
Precipitation 0.00 in - - ()
Sea Level Pressure  
Sea Level Pressure 30.11 in    
Wind  
Wind Speed 7 mph (SW)    
Max Wind Speed 15 mph    
Max Gust Speed 18 mph    
Visibility 10 miles    
Events      
Averages and records for this station are not official NWS values.
T = Trace of Precipitation, MM = Missing Value Source: NWS Daily Summary

Daily Weather History Graph

Daily Weather History Graph

Search for Another Location

Airport:

Trip Planner

Search our weather history database for the weather conditions in past years. The results will help you decide how hot, cold, wet, or windy it might be!

Date:

Astronomy

Jan. 28, 2014 Rise Set
Actual Time 7:54 AM CST 5:18 PM CST
Civil Twilight 7:21 AM CST 5:51 PM CST
Nautical Twilight 6:43 AM CST 6:28 PM CST
Astronomical Twilight 6:07 AM CST 7:05 PM CST
Moon 5:40 AM CST (1/28) 3:06 PM CST (1/28)
Length of Visible Light 10h 30m
Length of Day
9h 23m
Waning Crescent, 7% of the Moon is Illuminated
Jan 28
Waning Crescent
Jan 30
New
Feb 6
First Quarter
Feb 14
Full
Feb 22
Last Quarter

Hourly Weather History & Observations

Time (CST) Temp. Windchill Dew Point Humidity Pressure Visibility Wind Dir Wind Speed Gust Speed Precip Events Conditions
12:16 AM -29.2 °F -46.2 °F -34.6 °F 75% 30.27 in 10.0 mi SW 5.8 mph - N/A   Clear
12:35 AM -27.4 °F -41.9 °F -34.6 °F 69% 30.27 in 10.0 mi SW 4.6 mph - N/A   Clear
12:55 AM -29.2 °F -44.0 °F -34.6 °F 75% 30.26 in 10.0 mi SW 4.6 mph - N/A   Clear
1:16 AM -29.2 °F -44.0 °F -34.6 °F 75% 30.25 in 10.0 mi SW 4.6 mph - N/A   Clear
1:35 AM -29.2 °F -44.0 °F -36.4 °F 68% 30.25 in 10.0 mi SW 4.6 mph - N/A   Clear
1:55 AM -29.2 °F -44.0 °F -36.4 °F 68% 30.25 in 10.0 mi SW 4.6 mph - N/A   Clear
2:16 AM -31.0 °F -46.1 °F -36.4 °F 75% 30.25 in 10.0 mi SW 4.6 mph - N/A   Clear
2:35 AM -32.8 °F -45.3 °F -38.2 °F 75% 30.25 in 10.0 mi SW 3.5 mph - N/A   Clear
2:55 AM -32.8 °F - -38.2 °F 75% 30.24 in 10.0 mi Calm Calm - N/A   Clear
3:16 AM -32.8 °F - -38.2 °F 75% 30.23 in 10.0 mi Calm Calm - N/A   Clear
3:35 AM -31.0 °F -46.1 °F -36.4 °F 75% 30.22 in 10.0 mi SW 4.6 mph - N/A   Clear
3:55 AM -31.0 °F -43.3 °F -36.4 °F 75% 30.22 in 10.0 mi SSW 3.5 mph - N/A   Clear
4:15 AM -32.8 °F -45.3 °F -38.2 °F 75% 30.22 in 10.0 mi SSW 3.5 mph - N/A   Clear
4:35 AM -32.8 °F -45.3 °F -38.2 °F 75% 30.22 in 10.0 mi SSW 3.5 mph - N/A   Clear
4:55 AM -32.8 °F -48.2 °F -38.2 °F 75% 30.21 in 10.0 mi SSW 4.6 mph - N/A   Scattered Clouds
5:15 AM -32.8 °F -48.2 °F -38.2 °F 75% 30.21 in 10.0 mi SSW 4.6 mph - N/A   Clear
5:35 AM -32.8 °F -48.2 °F -40.0 °F 68% 30.21 in 10.0 mi SW 4.6 mph - N/A   Clear
5:55 AM -32.8 °F -50.5 °F -38.2 °F 75% 30.20 in 10.0 mi SSW 5.8 mph - N/A   Clear
6:15 AM -32.8 °F -48.2 °F -38.2 °F 75% 30.20 in 10.0 mi SSW 4.6 mph - N/A   Clear
6:35 AM -32.8 °F -50.5 °F -38.2 °F 75% 30.19 in 10.0 mi SSW 5.8 mph - N/A   Clear
6:55 AM -32.8 °F -52.4 °F -38.2 °F 75% 30.18 in 10.0 mi SSW 6.9 mph - N/A   Clear
7:15 AM -31.0 °F -50.3 °F -36.4 °F 75% 30.18 in 10.0 mi SSW 6.9 mph - N/A   Clear
7:35 AM -32.8 °F -50.5 °F -38.2 °F 75% 30.18 in 10.0 mi SSW 5.8 mph - N/A   Clear
7:55 AM -31.0 °F -50.3 °F -36.4 °F 75% 30.18 in 10.0 mi SSW 6.9 mph - N/A   Clear
8:15 AM -31.0 °F -50.3 °F -36.4 °F 75% 30.18 in 10.0 mi SW 6.9 mph - N/A   Clear
8:35 AM -29.2 °F -49.7 °F -36.4 °F 68% 30.18 in 10.0 mi SSW 8.1 mph - N/A   Clear
8:55 AM -27.4 °F -47.6 °F -32.8 °F 75% 30.18 in 10.0 mi SSW 8.1 mph - N/A   Clear
9:15 AM -25.6 °F -45.4 °F -32.8 °F 69% 30.17 in 10.0 mi SSW 8.1 mph - N/A   Clear
9:35 AM -23.8 °F -41.6 °F -29.2 °F 76% 30.17 in 10.0 mi SSW 6.9 mph - N/A   Clear
9:55 AM -22.0 °F -41.0 °F -29.2 °F 69% 30.16 in 10.0 mi SSW 8.1 mph - N/A   Clear
10:15 AM -20.2 °F -35.5 °F -27.4 °F 69% 30.16 in 10.0 mi SSW 5.8 mph - N/A   Clear
10:36 AM -18.4 °F -36.6 °F -25.6 °F 70% 30.17 in 10.0 mi SSW 8.1 mph - N/A   Clear
10:55 AM -16.6 °F -35.7 °F -23.8 °F 70% 30.16 in 10.0 mi SSW 9.2 mph - N/A   Clear
11:15 AM -16.6 °F -35.7 °F -23.8 °F 70% 30.16 in 10.0 mi SSW 9.2 mph - N/A   Clear
11:36 AM -14.8 °F -35.6 °F -22.0 °F 70% 30.15 in 10.0 mi SW 11.5 mph - N/A   Clear
11:55 AM -13.0 °F -35.2 °F -20.2 °F 70% 30.14 in 10.0 mi SSW 13.8 mph - N/A   Scattered Clouds
12:15 PM -13.0 °F -35.2 °F -20.2 °F 70% 30.13 in 10.0 mi SW 13.8 mph - N/A   Mostly Cloudy
12:36 PM -11.2 °F -32.1 °F -20.2 °F 64% 30.13 in 10.0 mi SW 12.7 mph - N/A   Mostly Cloudy
12:55 PM -9.4 °F -29.8 °F -20.2 °F 59% 30.12 in 10.0 mi SW 12.7 mph - N/A   Overcast
1:15 PM -9.4 °F -30.6 °F -20.2 °F 59% 30.12 in 10.0 mi SW 13.8 mph - N/A   Overcast
1:36 PM -9.4 °F -30.6 °F -20.2 °F 59% 30.11 in 10.0 mi SW 13.8 mph - N/A   Overcast
1:55 PM -9.4 °F -30.6 °F -20.2 °F 59% 30.10 in 10.0 mi SW 13.8 mph - N/A   Overcast
2:15 PM -9.4 °F -31.4 °F -20.2 °F 59% 30.09 in 10.0 mi SW 15.0 mph - N/A   Overcast
2:35 PM -9.4 °F -29.8 °F -18.4 °F 65% 30.08 in 10.0 mi WSW 12.7 mph - N/A   Overcast
2:55 PM -7.6 °F -27.5 °F -18.4 °F 59% 30.08 in 10.0 mi WSW 12.7 mph - N/A   Overcast
3:16 PM -7.6 °F -27.5 °F -18.4 °F 59% 30.07 in 10.0 mi SW 12.7 mph 16.1 mph N/A   Overcast
3:35 PM -7.6 °F -27.5 °F -16.6 °F 65% 30.06 in 10.0 mi SW 12.7 mph 18.4 mph N/A   Overcast
3:55 PM -7.6 °F -27.5 °F -16.6 °F 65% 30.06 in 10.0 mi SW 12.7 mph - N/A   Overcast
4:15 PM -7.6 °F -28.3 °F -16.6 °F 65% 30.06 in 10.0 mi SW 13.8 mph 17.3 mph N/A   Overcast
4:35 PM -7.6 °F -28.3 °F -14.8 °F 71% 30.06 in 10.0 mi SW 13.8 mph - N/A   Overcast
4:55 PM -7.6 °F -27.5 °F -14.8 °F 71% 30.05 in 10.0 mi SW 12.7 mph - N/A   Overcast
5:15 PM -7.6 °F -26.6 °F -14.8 °F 71% 30.05 in 10.0 mi SW 11.5 mph - N/A   Overcast
5:36 PM -7.6 °F -25.7 °F -14.8 °F 71% 30.04 in 10.0 mi SW 10.4 mph - N/A   Mostly Cloudy
5:55 PM -9.4 °F -27.9 °F -16.6 °F 71% 30.03 in 10.0 mi SW 10.4 mph - N/A   Clear
6:15 PM -9.4 °F -27.9 °F -18.4 °F 65% 30.02 in 10.0 mi SW 10.4 mph - N/A   Clear
6:36 PM -9.4 °F -27.9 °F -16.6 °F 71% 30.01 in 10.0 mi SW 10.4 mph - N/A   Clear
6:55 PM -11.2 °F -29.0 °F -18.4 °F 70% 30.01 in 10.0 mi SW 9.2 mph - N/A   Clear
7:15 PM -11.2 °F -29.0 °F -16.6 °F 77% 30.01 in 10.0 mi SSW 9.2 mph - N/A   Clear
7:36 PM -11.2 °F -29.0 °F -16.6 °F 77% 30.00 in 10.0 mi SSW 9.2 mph - N/A   Clear
7:55 PM -11.2 °F -32.1 °F -16.6 °F 77% 29.99 in 10.0 mi SSW 12.7 mph - N/A   Clear
8:15 PM -11.2 °F -30.1 °F -16.6 °F 77% 29.98 in 10.0 mi SSW 10.4 mph - N/A   Clear
8:36 PM -11.2 °F -31.1 °F -16.6 °F 77% 29.98 in 10.0 mi SSW 11.5 mph - N/A   Clear
8:55 PM -11.2 °F -32.1 °F -18.4 °F 70% 29.97 in 10.0 mi SSW 12.7 mph - N/A   Clear
9:15 PM -11.2 °F -31.1 °F -16.6 °F 77% 29.97 in 10.0 mi SSW 11.5 mph - N/A   Clear
9:35 PM -11.2 °F -30.1 °F -18.4 °F 70% 29.96 in 10.0 mi SSW 10.4 mph - N/A   Clear
9:55 PM -13.0 °F -32.4 °F -18.4 °F 77% 29.95 in 10.0 mi SSW 10.4 mph - N/A   Clear
10:15 PM -13.0 °F -32.4 °F -18.4 °F 77% 29.94 in 10.0 mi SSW 10.4 mph - N/A   Clear
10:35 PM -13.0 °F -33.4 °F -18.4 °F 77% 29.94 in 10.0 mi SSW 11.5 mph - N/A   Clear
10:56 PM -14.8 °F -34.6 °F -18.4 °F 84% 29.94 in 10.0 mi SSW 10.4 mph - N/A   Clear
11:15 PM -14.8 °F -35.6 °F -20.2 °F 77% 29.93 in 10.0 mi South 11.5 mph - N/A   Clear
11:35 PM -16.6 °F -37.9 °F -20.2 °F 84% 29.93 in 10.0 mi SSW 11.5 mph - N/A   Clear
11:56 PM -14.8 °F -36.6 °F -20.2 °F 77% 29.92 in 10.0 mi South 12.7 mph - N/A   Clear